Location: Ertinghausen
(51.6624°N, 9.7874°E)
Time: 21:39:29
(UTC+00:00)

Cosmos 2221 Rocket - Pass Details

Date: 19 August 2024
Orbit: 617 x 644 km, 82.5° (Epoch: 17 September)

Event Time Altitude Azimuth Distance (km) Brightness Sun altitude
Rises 02:43:42 0° 343° (NNW) 2,970 7.4 -12.7°
Reaches altitude 10° 02:46:05 10° 336° (NNW) 2,054 6.4 -12.4°
Maximum altitude 02:50:18 38° 269° (W) 979 4.2 -11.9°
Enters shadow 02:54:03 12° 203° (SSW) 1,876 5.5 -11.4°
